Dewpoint
13 11 9 8 6 6 7 8 7 7 8 8 7 6 5 4 3 2 1 1 1 0 -0 0 1 1 1 2 5 8 9 9
12 10 10 7 6 8 8 7 7 7 7 6 6 5 4 3 1 1 0 -0 -1 -1 -1 -1 -1 -1 -1 5 6 7 9 8
11 12 11 9 8 8 7 8 8 7 7 6 7 8 5 2 1 -0 -1 -2 -2 -2 -1 -0 -1 -1 2 6 6 8 7 8
13 12 11 11 9 9 9 8 9 8 8 7 8 7 5 0 -1 -2 -2 -2 -1 -1 2 5 6 6 6 5 6 7 6 7
12 12 11 11 11 11 10 10 10 8 7 7 5 3 1 4 2 2 0 1 2 4 6 6 6 5 5 4 5 4 5 6
10 11 12 12 11 11 10 10 9 8 7 4 2 4 -1 4 3 4 4 5 6 6 6 7 6 6 5 4 4 3 3 5
12 12 12 12 11 11 10 10 9 8 6 3 4 4 -1 2 2 3 3 4 5 5 6 5 6 5 4 4 4 4 4 4
12 10 11 11 11 10 10 9 8 7 6 -1 -3 -3 -6 -7 -8 1 1 2 4 4 5 5 5 4 4 3 2 2 3 3
11 11 11 11 11 10 9 8 7 6 4 -2 -4 -6 -10 -6 -4 -2 -1 -0 4 5 5 4 4 3 3 2 2 2 2 2
11 11 11 10 10 10 8 8 7 5 0 -4 -7 -12 -17 -6 -7 -6 -14 -3 2 4 4 3 3 2 2 0 1 0 1 1
11 11 10 10 10 9 8 8 6 5 4 -3 -11 -18 -23 -3 -4 -20 -18 -4 1 3 3 2 2 2 1 0 -0 -1 -2 -1
11 11 10 10 10 9 8 6 5 5 3 -0 -12 -19 -26 -15 -19 -28 -10 -3 -0 2 3 2 1 -0 -2 -0 -1 -1 -1 -2
11 10 10 10 10 9 8 6 5 4 2 -6 -13 -21 -27 -26 -26 -28 -8 -3 0 2 3 2 0 -1 -1 -1 -0 -1 -2 -3
11 11 10 10 9 9 7 6 4 3 1 -7 -13 -19 -26 -27 -26 -26 -7 -9 -11 -7 0 0 -1 -1 -1 -1 -2 -2 -2 -4
11 11 10 10 9 8 7 5 4 3 -1 -7 -11 -16 -21 -24 -26 -26 -23 -15 -10 -12 -3 0 -1 -0 0 -1 -2 -2 -1 -3
11 11 10 9 9 7 6 5 4 2 -2 -5 -9 -11 -15 -18 -22 -26 -27 -7 -11 -17 -10 -1 -1 -1 -2 -1 -2 -1 -4 -3
12 12 10 9 9 7 6 5 4 2 2 -1 -7 -8 -9 -11 -16 -21 -25 -23 -25 -16 -8 -5 -2 -2 -2 -3 -3 -5 -9 -5
12 11 11 10 9 7 6 3 3 2 2 -1 -5 -6 -6 -7 -9 -13 -18 -22 -25 -27 -27 -26 -13 -10 -4 -5 -5 -6 -6 -7
12 11 10 10 9 8 6 5 4 3 2 -3 -3 -5 -5 -5 -6 -7 -11 -16 -20 -24 -26 -27 -28 -26 -25 -8 -6 -6 -7 -8
12 12 11 10 9 8 7 6 5 4 2 -0 -3 -3 -4 -4 -4 -4 -6 -10 -14 -17 -21 -23 -25 -28 -25 -16 -6 -6 -7 -8
Wind_Speed
11 12 11 10 8 7 6 5 5 4 4 6 6 6 5 5 5 6 7 7 7 7 8 8 9 10 12 14 17 15 13 13
14 12 11 11 10 9 7 5 3 3 4 5 5 4 4 5 6 7 7 6 6 7 8 8 8 9 12 21 22 15 20 15
15 15 12 12 11 10 7 4 2 2 5 7 8 6 5 4 7 6 5 5 6 7 9 9 9 14 16 21 17 8 12 15
16 13 12 12 11 8 5 4 3 5 6 6 6 6 5 4 5 4 4 5 7 9 13 17 14 9 11 14 13 12 12 12
20 20 17 14 11 9 6 6 5 6 6 6 6 5 4 3 3 4 4 7 7 8 11 9 8 8 10 12 12 11 12 12
19 18 18 16 11 9 8 7 7 5 6 5 4 4 6 5 4 4 5 5 7 6 6 9 11 12 12 13 12 11 10 11
17 18 19 15 12 10 9 9 7 8 6 8 7 5 6 6 7 5 5 6 6 7 9 9 10 11 11 12 12 13 11 9
20 18 19 15 12 12 10 10 12 8 7 9 8 7 7 7 7 6 6 6 6 7 8 9 9 10 11 11 11 12 12 9
20 20 18 15 14 12 10 10 9 8 9 10 9 7 8 8 8 7 7 9 10 9 9 8 9 9 9 10 10 11 10 9
21 21 20 16 14 13 11 12 10 9 9 9 9 9 9 8 7 8 8 8 7 8 8 8 9 8 9 7 7 8 8 7
21 22 20 17 16 14 13 14 12 9 9 9 10 9 10 8 7 9 9 8 8 9 9 9 9 9 9 8 7 6 6 4
21 21 18 18 16 15 14 14 12 11 10 10 10 10 10 11 9 9 9 9 10 10 10 9 9 9 8 8 6 5 4 3
22 21 20 19 17 17 17 17 14 12 11 13 12 12 12 11 10 10 9 8 10 11 11 13 11 11 9 6 4 4 4 2
26 22 22 22 19 18 17 16 16 15 14 14 14 13 13 12 12 11 10 10 11 13 13 12 11 12 6 5 4 3 3 3
27 24 24 24 21 21 19 17 17 17 18 17 16 15 14 13 12 11 11 10 11 11 12 12 11 11 10 6 4 4 6 4
30 29 30 30 28 26 26 24 22 19 19 18 18 17 16 14 13 12 12 11 11 12 13 12 9 9 9 9 10 4 4 4
36 35 34 31 30 28 29 25 21 19 18 20 20 19 17 16 15 14 13 12 12 12 13 12 10 9 9 7 7 7 10 7
36 34 33 31 33 35 31 31 25 23 23 23 23 22 20 19 16 14 13 13 12 12 12 12 12 12 9 10 8 7 6 7
45 38 38 36 37 38 36 31 29 28 29 27 25 25 24 21 19 17 15 15 14 14 13 13 13 14 14 12 11 10 9 8
47 47 42 40 40 39 35 31 31 29 30 27 29 26 24 22 20 18 17 17 17 14 14 15 15 16 15 14 11 10 10 10
Wind_Direction
161 184 170 165 164 154 145 142 131 119 111 116 124 128 113 101 88 84 80 82 78 76 83 88 90 89 85 81 90 71 75 69
174 171 155 168 163 153 149 145 135 118 131 137 129 119 108 98 100 92 85 81 82 85 86 88 89 86 85 87 82 81 78 69
180 146 153 160 162 155 158 151 155 152 146 135 103 100 90 102 101 96 91 86 86 90 84 73 83 83 97 96 87 74 73 79
170 153 166 154 154 148 165 140 127 156 158 147 131 137 148 104 102 103 111 104 101 96 85 78 71 70 70 82 94 67 80 81
180 164 176 158 173 169 170 171 172 191 179 159 155 145 126 107 78 68 97 88 106 86 65 88 117 102 96 91 92 91 88 82
183 176 174 160 180 170 182 178 179 161 195 180 156 148 162 136 149 153 127 144 149 125 126 115 107 104 101 100 99 95 92 85
183 181 185 184 170 188 171 184 165 188 182 189 174 174 184 168 165 150 148 140 142 140 119 117 111 104 101 100 103 102 96 91
185 190 191 190 180 188 191 165 197 163 181 201 200 196 196 183 163 139 138 139 147 142 137 125 127 115 110 107 103 100 102 91
196 197 194 188 191 194 174 186 167 172 192 199 196 196 185 168 156 147 152 168 147 155 141 143 128 122 115 109 104 104 104 105
196 204 201 190 187 183 175 180 173 180 193 206 197 190 173 154 154 155 164 138 147 153 152 147 142 134 126 121 118 112 107 96
192 205 200 191 189 181 180 184 175 181 184 200 201 191 171 157 165 173 155 156 157 157 166 161 157 146 141 137 129 119 111 113
197 199 198 190 193 183 182 187 181 183 184 198 197 192 181 164 178 168 158 159 161 163 168 163 162 155 150 147 144 138 136 118
195 196 196 190 193 188 189 187 186 183 186 206 198 192 184 173 174 173 163 161 168 167 162 165 168 163 154 156 169 175 147 154
197 199 198 194 195 193 195 189 191 190 198 201 198 194 185 179 180 177 167 175 171 168 165 170 179 175 174 178 194 228 215 172
202 201 206 200 196 192 190 188 192 191 202 202 199 192 189 190 185 182 176 170 172 176 175 179 187 201 181 228 245 263 169 236
208 209 208 211 197 199 192 193 193 200 201 200 200 194 194 193 190 189 184 177 188 189 189 191 195 211 223 230 229 224 236 207
215 216 216 215 202 198 199 195 197 198 194 200 201 200 196 196 194 193 193 192 199 196 203 194 209 206 229 242 241 243 236 247
215 213 210 209 207 200 206 200 193 194 195 201 203 204 201 200 199 196 198 205 206 207 212 215 213 219 215 230 226 226 241 230
223 214 212 211 209 206 206 206 194 199 204 204 203 206 206 205 204 201 204 208 210 212 217 222 224 230 229 224 226 228 230 227
229 218 214 210 211 208 207 204 201 201 210 206 210 212 211 212 211 209 211 212 214 217 223 226 230 231 231 219 222 221 223 213
Height
1566 1567 1569 1570 1571 1572 1573 1574 1574 1574 1575 1575 1575 1575 1576 1576 1575 1575 1575 1575 1575 1576 1576 1576 1577 1577 1578 1579 1581 1581 1579 1581
1564 1566 1568 1570 1572 1573 1574 1575 1575 1575 1575 1576 1576 1576 1577 1577 1577 1577 1577 1577 1577 1577 1577 1578 1578 1579 1580 1582 1583 1584 1579 1582
1563 1566 1569 1569 1571 1573 1575 1575 1576 1576 1576 1576 1577 1579 1577 1578 1578 1578 1578 1578 1578 1579 1579 1580 1580 1581 1583 1583 1584 1580 1582 1584
1564 1569 1570 1570 1571 1573 1575 1576 1577 1576 1576 1576 1578 1578 1578 1578 1578 1579 1579 1579 1580 1581 1581 1582 1584 1586 1585 1586 1586 1583 1584 1586
1560 1565 1568 1571 1573 1575 1576 1577 1576 1576 1577 1578 1577 1577 1578 1580 1579 1579 1580 1580 1580 1582 1582 1585 1586 1587 1587 1588 1588 1588 1588 1588
1559 1562 1566 1569 1573 1574 1575 1576 1576 1576 1576 1577 1578 1578 1579 1581 1583 1582 1583 1585 1584 1586 1585 1585 1585 1585 1586 1587 1589 1589 1589 1588
1561 1561 1563 1567 1569 1572 1573 1573 1576 1575 1575 1576 1578 1578 1577 1579 1579 1582 1583 1584 1585 1586 1586 1587 1586 1586 1587 1588 1588 1588 1589 1588
1557 1558 1560 1562 1568 1568 1569 1571 1572 1574 1574 1575 1576 1576 1577 1577 1578 1580 1582 1584 1586 1587 1587 1587 1588 1587 1587 1588 1589 1590 1591 1591
1553 1556 1559 1561 1563 1565 1567 1569 1572 1573 1573 1573 1574 1575 1576 1576 1577 1578 1580 1581 1583 1585 1587 1587 1588 1588 1588 1588 1588 1589 1590 1590
1550 1553 1557 1559 1560 1563 1567 1567 1571 1571 1571 1572 1572 1573 1574 1575 1577 1578 1578 1580 1584 1585 1587 1587 1588 1588 1589 1590 1589 1588 1588 1589
1548 1550 1553 1557 1558 1560 1564 1564 1568 1570 1570 1570 1571 1572 1573 1576 1576 1575 1577 1579 1582 1584 1586 1587 1588 1589 1589 1589 1589 1589 1589 1588
1547 1548 1552 1556 1557 1559 1560 1562 1566 1567 1569 1569 1569 1570 1572 1573 1574 1575 1576 1577 1579 1582 1585 1587 1588 1588 1588 1587 1587 1587 1587 1587
1544 1547 1549 1552 1555 1557 1559 1559 1562 1565 1566 1565 1567 1568 1569 1571 1573 1575 1576 1576 1579 1580 1582 1583 1585 1586 1586 1586 1585 1584 1586 1587
1536 1541 1544 1547 1552 1555 1558 1559 1559 1561 1562 1564 1565 1566 1568 1569 1571 1572 1574 1575 1576 1577 1580 1583 1584 1584 1587 1587 1587 1587 1585 1586
1533 1536 1540 1542 1546 1550 1553 1556 1558 1558 1558 1560 1562 1563 1565 1567 1568 1570 1572 1573 1574 1576 1577 1580 1582 1582 1583 1587 1586 1584 1585 1584
1525 1529 1532 1534 1538 1545 1546 1547 1551 1554 1555 1557 1559 1561 1562 1564 1566 1568 1569 1571 1572 1574 1575 1578 1581 1582 1582 1583 1583 1582 1584 1584
1518 1522 1526 1529 1535 1539 1541 1543 1547 1551 1554 1554 1556 1558 1560 1561 1562 1564 1567 1568 1569 1571 1573 1575 1577 1580 1580 1581 1580 1580 1580 1581
1513 1518 1521 1526 1528 1531 1536 1537 1541 1546 1549 1550 1552 1554 1556 1558 1559 1561 1563 1565 1566 1568 1570 1572 1573 1574 1577 1578 1578 1578 1578 1578
1505 1509 1513 1517 1522 1524 1527 1532 1536 1540 1542 1544 1547 1549 1551 1553 1555 1557 1559 1561 1562 1564 1566 1567 1568 1569 1569 1570 1572 1573 1574 1575
1494 1498 1504 1510 1514 1519 1524 1527 1531 1534 1536 1540 1542 1545 1547 1549 1552 1554 1556 1557 1558 1560 1562 1563 1562 1563 1565 1566 1568 1568 1568 1568